Regional Weather Roundup
Issued by NWS Upton, NY

Current Version | Previous Version | Text Only | Print | Product List | Glossary Off
Versions: 1 2 3 4 5 6 7 8 9 10 11 12 13 14 15 16 17 18 19 20 21 22 23 24 25 26 27
000 ASUS41 KOKX 251108 RWROKX REGIONAL WEATHER ROUNDUP NATIONAL WEATHER SERVICE NEW YORK NY 700 AM EDT SAT MAR 25 2017 NOTE: "FAIR" INDICATES FEW OR NO CLOUDS BELOW 12,000 FEET WITH NO SIGNIFICANT WEATHER AND/OR OBSTRUCTIONS TO VISIBILITY. NYZ071-072-176-178-NJZ106-104-251200- NEW YORK CITY METRO AREA CITY SKY/WX TMP DP RH WIND PRES REMARKS Central Park MOCLDY 53 38 56 VRB6 30.14R Wall St Helipt CLOUDY 51 39 63 VRB3 30.12R LaGuardia APRT CLOUDY 55 38 52 VRB3 30.12R Kennedy INTL MOCLDY 53 41 63 W8 30.12R Breezy Point N/A 48 N/A N/A W10 N/A Newark/Liberty CLOUDY 50 37 61 W6 30.10R Teterboro CLOUDY 49 37 63 CALM 30.11R $$ NYZ177-179-078>081-251200- LONG ISLAND NEW YORK CITY SKY/WX TMP DP RH WIND PRES REMARKS Jones Beach N/A 46 N/A N/A NW5 N/A Matinecock PT N/A 45 N/A N/A E5 N/A Farmingdale CLOUDY 45 39 79 CALM 30.12R MacArthur/ISP CLOUDY 42 39 89 N6 30.12R Shirley CLOUDY 41 39 93 N3 30.13R Westhampton MOCLDY 39 36 89 CALM 30.14R East Hampton N/A 37 35 93 CALM 30.13R Montauk N/A 41 38 89 CALM 30.15R $$ NYZ052-065-067-251200- HUDSON VALLEY CITY SKY/WX TMP DP RH WIND PRES REMARKS White Plains CLOUDY 44 34 67 CALM 30.11R Newburgh MOCLDY 41 36 81 VRB6 30.12R Montgomery CLOUDY 36 33 89 CALM 30.11S Poughkeepsie CLOUDY 35 32 88 CALM 30.12R Albany CLOUDY 37 33 85 N8 30.17R FOG WCI 31 $$ NJZ001-105-106-008-010-013-015-019>022-104-251200- NEW JERSEY CITY SKY/WX TMP DP RH WIND PRES REMARKS Newark/Liberty CLOUDY 50 37 61 W6 30.10R Teterboro CLOUDY 49 37 63 CALM 30.11R Caldwell CLOUDY 48 36 63 CALM 30.12R Somerville CLOUDY 39 34 82 CALM 30.09S Linden N/A 50 37 60 CALM 30.11R Sussex CLOUDY 38 35 89 CALM 30.11R Andover N/A 40 35 83 N3 30.11R Trenton CLOUDY 50 41 71 SW5 30.11R Millville PTCLDY 55 48 77 SW7 30.16R Atlantic City PTCLDY 57 46 66 SW9 30.15R Wrightstown CLOUDY 56 46 70 CALM 30.10R Toms River CLOUDY 55 46 71 SW9 30.14R Belmar CLOUDY 55 45 68 SW10 30.12R $$ PAZ047>061-062-071-251200- EASTERN PENNSYLVANIA CITY SKY/WX TMP DP RH WIND PRES REMARKS Philadelphia CLOUDY 53 44 71 SW10 30.14R Allentown CLOUDY 41 34 76 N3 30.11R Scranton MOCLDY 44 39 82 CALM 30.11R $$ CTZ002-004>006-009-010-012-RIZ004-006-007-MAZ004-011-015-251200- SOUTHERN NEW ENGLAND IN CT CITY SKY/WX TMP DP RH WIND PRES REMARKS Bradley INTL CLOUDY 38 34 85 NW3 30.12R Hartford CLOUDY 39 34 82 CALM 30.13R Danbury CLOUDY 37 33 85 CALM 30.12R Wtrbury/Oxford PTCLDY 39 30 70 N6 30.12R WCI 35 Bridgeport PTCLDY 42 34 73 CALM 30.13R Meriden CLOUDY 38 34 85 CALM 30.13R New Haven CLOUDY 39 34 82 CALM 30.13R Chester NOT AVBL Groton MOCLDY 37 34 89 CALM 30.13R Wilimantic CLOUDY 37 33 85 N3 30.13R IN RI CITY SKY/WX TMP DP RH WIND PRES REMARKS Providence MOCLDY 44 35 70 CALM 30.12R Block Island PTCLDY 41 39 93 W9 30.15R FOG Westerly PTCLDY 37 34 89 SE3 30.13R IN MA CITY SKY/WX TMP DP RH WIND PRES REMARKS Boston LGT RAIN 43 37 79 N7 30.15R Worcester LGT RAIN 41 32 70 N3 30.11R Westfield CLOUDY 35 33 92 N7 30.12R WCI 29 Provincetown CLOUDY 41 36 82 NE6 30.14R Nantucket CLOUDY 44 39 82 W10 30.11R $$ ANZ330-335-338-340-345-350-353-355-251200- COASTAL MARINE OBSERVATIONS STATION/POSITION TIME SKY/WX TEMP WIND PRES VSBY WAVE AIR SEA DIR/SP/G HT/PER (UTC) (F) (DEG/KT/KT) (MB) (MI) (FT/S) NY HARB ENTRANCE 0950 47 42 200/ 6/ 8 1019.2 4/ 6 20 S FIRE ISLAND 1050 44 40 220/ 14/ 16 1019.1 6/ 8 GREAT SOUTH BAY NOT AVBL 23 SSW MONTAUK P 0950 46 43 1019.4 6/ 7 15 E BARNEGAT LI 1030 42 N/A 6/ 8 HUDSON CANYON 0950 49 45 220/ 19/ 21 1020.4 8/ 8 KINGS POINT 1042 51 38 1019.3 EXECUTION ROCKS NOT AVBL CENTRAL LI SOUND 1015 41 40/ 4/ 4 N/A 0 EASTERN LI SOUND NOT AVBL ROBBINS REEF 1042 51 290/ 9/ 11 1019.5 $$ >>>>>>>>>>>>>>>>>>>>>>>>>>>> KEY <<<<<<<<<<<<<<<<<<<<<<<<<<< > < > SKY/WX - Sky Condition/Present Weather < > TMP - Temperature in Fahrenheit < > DP - Dew Point in Fahrenheit < > RH - Relative Humidity in Percent < > WIND - Direction (from) and Speed in MPH < > PRES - Mean Sea Level Pressure (inches of Hg) < > WCI - Wind Chill Index < > VSB - VISIBILITY IN MILES < > HX - HEAT INDEX < > TC - TEMPERATURE IN CELSIUS < > VRB - VARIABLE WIND DIRECTION < > < >>>>>>>>>>>>>>>>>>>>>>>>>>>> KEY <<<<<<<<<<<<<<<<<<<<<<<<<<<

USA.gov is the U.S. government's official web portal to all federal, state and local government web resources and services.